(173) Ino(173) Ino Epoch 2008 Nov. 30.0 TT = JDT 2454800.5 MPC M 291.47961 (2000.0) P Q n 0.21678237 Peri. 227.71146 +0.94925208 -0.28687148 a 2.7444379 Node 148.31359 +0.30784013 +0.93145748 e 0.2076593 Incl. 14.20971 -0.06445882 +0.22381177 P 4.55 H 7.66 G 0.01 U 0 From 860 observations at 62 oppositions, 1879-2008, mean residual 0".58.An explanation of the orbital elements is available.
These orbital elements are also available in forms suitable for loading into a number of popular planetarium-type software programs.
Personalized ephemerides for this object (and others) can be generated using the MPES.
Date TT R. A. (2000) Decl. Delta r Elong. Phase V 2009 07 30 01 11.07 -00 28.7 1.640 2.210 110.5 25.5 11.9 2009 08 04 01 15.51 -00 50.5 1.585 2.206 114.3 24.8 11.8 2009 08 09 01 19.42 -01 17.9 1.533 2.202 118.2 23.9 11.6 2009 08 14 01 22.77 -01 51.3 1.483 2.198 122.3 22.9 11.5 2009 08 19 01 25.50 -02 30.5 1.436 2.194 126.5 21.8 11.4 2009 08 24 01 27.56 -03 15.4 1.392 2.191 130.8 20.4 11.3 2009 08 29 01 28.94 -04 05.8 1.352 2.188 135.3 19.0 11.2 2009 09 03 01 29.61 -05 00.9 1.316 2.185 139.8 17.3 11.0 2009 09 08 01 29.56 -06 00.1 1.284 2.183 144.3 15.6 10.9 2009 09 13 01 28.82 -07 02.3 1.257 2.181 148.8 13.8 10.8 2009 09 18 01 27.39 -08 06.4 1.235 2.179 153.0 12.1 10.7 2009 09 23 01 25.35 -09 10.7 1.219 2.178 156.8 10.4 10.6 2009 09 28 01 22.79 -10 13.5 1.209 2.177 159.8 9.2 10.5 2009 10 03 01 19.83 -11 13.1 1.204 2.176 161.4 8.4 10.4 2009 10 08 01 16.60 -12 07.8 1.206 2.176 161.2 8.5 10.4 2009 10 13 01 13.24 -12 56.3 1.213 2.176 159.4 9.3 10.5 2009 10 18 01 09.91 -13 37.2 1.226 2.176 156.2 10.6 10.6 2009 10 23 01 06.76 -14 09.5 1.245 2.176 152.3 12.3 10.7 2009 10 28 01 03.95 -14 32.8 1.270 2.177 148.0 14.0 10.8 2009 11 02 01 01.58 -14 46.9 1.299 2.178 143.5 15.7 10.9 2009 11 07 00 59.76 -14 51.9 1.333 2.180 138.9 17.4 11.1 2009 11 12 00 58.55 -14 48.4 1.371 2.182 134.4 18.9 11.2 2009 11 17 00 57.99 -14 36.7 1.413 2.184 129.9 20.3 11.3 2009 11 22 00 58.11 -14 17.5 1.459 2.186 125.5 21.6 11.4 2009 11 27 00 58.92 -13 51.7 1.508 2.189 121.3 22.7 11.5 2009 12 02 01 00.40 -13 19.9 1.559 2.192 117.2 23.6 11.7 2009 12 07 01 02.52 -12 42.9 1.612 2.196 113.2 24.4 11.8